TORNEIO INTERLAGOS DE REGULARIDADE 2012

RESULTADO INDIVIDUAL


CATEGORIA: MODERNOETAPA: ETAPA 2DATA: 10/06/2012

NUMERALPILOTOTEMPO ESCOLHIDOPONTOHORÁRIOVEL. MÁX.VEL. MÉDIATEMPO VOLTAPONTOS PERDIDOS
2CARLOS RODRIGUES - CARLAO2:53PC0117:13:00126910:02:530
17:15:52127910:02:521
17:21:32130920:02:512
17:24:23130920:02:512
17:35:16125910:02:541
17:38:09132910:02:530
17:41:02132920:02:530
17:46:44124910:02:541
17:49:37129910:02:530
     7
PC0217:13:23126910:02:530
17:16:14127920:02:512
17:21:54130920:02:512
17:24:45130920:02:512
17:35:39125900:02:541
17:38:33132910:02:541
17:41:24132920:02:512
17:47:07124910:02:541
17:49:59129910:02:521
     12
PC0317:11:44130930:02:503
17:14:40125890:02:563
17:20:21129910:02:530
17:34:03130910:02:541
17:36:56125910:02:530
17:39:50132910:02:541
17:48:22125900:02:552
17:51:12129930:02:503
17:54:07132900:02:552
     15
        TOTAL: 34
3LUIS OTAVIO MACHADO2:27PC0117:14:061481040:02:314
17:29:551551070:02:270
17:32:211471090:02:261
17:34:471551080:02:261
17:37:131711100:02:261
17:39:411711060:02:281
17:42:061551080:02:252
17:49:271611070:02:270
17:51:561491060:02:292
     12
PC0217:14:261481050:02:303
17:24:241551060:02:292
17:30:141551070:02:270
17:32:411471070:02:270
17:35:081551070:02:270
17:37:331711110:02:252
17:40:001711060:02:270
17:42:261551080:02:261
17:49:461611080:02:261
     9
PC0317:15:301441060:02:281
17:28:491511090:02:252
17:31:161551080:02:270
17:33:421551080:02:261
17:36:091711080:02:270
17:38:351711100:02:261
17:41:031691060:02:281
17:45:531621080:02:261
17:50:481611100:02:252
     9
        TOTAL: 30
8NICOLAU SERGIO EGORNOFF2:53PC0117:09:26129860:03:029
17:12:12148950:02:4615
17:14:55156970:02:4330
17:17:45148930:02:503
17:20:28163960:02:4330
17:41:37146980:02:4235
17:47:02153960:02:4425
17:49:46142960:02:4425
17:52:31143960:02:4520
     192
PC0217:09:50129890:02:585
17:12:35148950:02:4520
17:15:18156970:02:4330
17:18:08148930:02:503
17:23:31148980:02:4235
17:41:59146970:02:4330
17:47:24153970:02:4330
17:50:07142970:02:4330
17:52:54143950:02:4710
     193
PC0317:10:59144930:02:494
17:13:41156970:02:4235
17:16:27149960:02:4615
17:19:15163940:02:485
17:21:58152960:02:4330
17:35:12148990:02:4140
17:45:52140950:02:4615
17:51:17143960:02:4520
17:54:13129900:02:563
     167
        TOTAL: 552
9RODRIGO RIBEIRO VISCONTI2:41PC0117:14:55163950:02:443
17:23:21140960:02:454
17:25:59162990:02:383
17:28:361631010:02:374
17:36:26155970:02:421
17:39:08161970:02:421
17:41:47162990:02:392
17:44:241621000:02:374
17:49:39166970:02:410
     22
PC0217:12:34147950:02:465
17:15:18163960:02:443
17:23:44140960:02:443
17:28:58163990:02:383
17:36:48155970:02:432
17:39:30161980:02:421
17:42:081621000:02:383
17:44:451621000:02:374
17:50:02166970:02:421
     25
PC0317:13:40163980:02:410
17:16:26151950:02:465
17:24:49162990:02:401
17:27:261631000:02:374
17:35:15158980:02:410
17:37:54161990:02:392
17:40:37162970:02:432
17:45:50162990:02:383
17:51:06164960:02:432
     19
        TOTAL: 66
10VIRGOLINO DE OLIVEIRA NETO2:27PC0117:19:231521070:02:261
17:24:141531070:02:261
17:31:371471060:02:281
17:34:041551060:02:270
17:36:321551060:02:281
17:38:581481070:02:261
17:41:251521070:02:270
17:43:511541070:02:261
17:46:191481060:02:281
     7
PC0217:22:081541080:02:261
17:24:341531070:02:261
17:31:571471050:02:281
17:34:231551080:02:261
17:36:511551060:02:281
17:39:181481070:02:270
17:41:451521060:02:270
17:46:381481070:02:270
17:49:051511060:02:270
     5
PC0317:18:201491070:02:270
17:23:101541080:02:261
17:25:361531070:02:261
17:30:331541060:02:270
17:33:011441060:02:281
17:35:271551070:02:261
17:37:541551060:02:270
17:40:221481050:02:281
17:45:151541070:02:270
     5
        TOTAL: 17
11ERIC DARWICH3:20PC0117:00:00   150
17:00:00   150
17:00:00   150
17:00:00   150
17:09:59101600:04:1757
17:13:18107790:03:191
17:16:40106770:03:222
17:20:05106770:03:255
17:23:4298730:03:3717
     682
PC0217:00:00   150
17:00:00   150
17:00:00   150
17:00:00   150
17:10:24101610:04:1353
17:13:43107790:03:191
17:17:06106770:03:233
17:20:30106770:03:244
17:24:0898720:03:3818
     679
PC0317:00:00   150
17:00:00   150
17:00:00   150
17:00:00   150
17:11:53101790:03:191
17:15:15107780:03:222
17:18:38106780:03:233
17:22:04106760:03:266
17:50:419890:28:37150
     762
        TOTAL: 2123
13NOLBERTO S. NAPOLEÃO JUNIOR2:53PC0117:15:44135900:02:541
17:18:39136900:02:552
17:24:24132900:02:563
17:30:04135920:02:521
17:35:42130910:02:530
17:38:35127910:02:530
17:44:15137920:02:521
17:47:06135920:02:512
17:49:59130910:02:530
     10
PC0217:16:08135900:02:552
17:19:01136910:02:530
17:24:46132900:02:552
17:30:26135920:02:521
17:36:04130910:02:530
17:38:57127920:02:530
17:44:38137910:02:530
17:47:29135920:02:512
17:50:22130910:02:530
     7
PC0317:11:32131890:02:574
17:14:27132900:02:552
17:17:22135900:02:552
17:20:15136910:02:530
17:23:08134910:02:530
17:26:00131910:02:521
17:43:02121910:02:530
17:48:43135910:02:521
17:51:39130890:02:563
     13
        TOTAL: 30
19RONALDO FERREIRA2:27PC0117:15:222001120:02:1920
17:17:521881040:02:303
17:20:201861050:02:281
17:22:531761020:02:336
17:25:201721070:02:270
17:27:451831070:02:252
17:30:111711070:02:261
17:32:431961030:02:325
17:35:101681060:02:270
     38
PC0217:15:422001120:02:2015
17:18:131881030:02:314
17:20:401861060:02:270
17:23:131761020:02:336
17:25:391721070:02:261
17:28:041831080:02:252
17:30:311711060:02:270
17:33:031961020:02:325
17:35:311681050:02:281
     34
PC0317:16:511881020:02:336
17:19:181881070:02:270
17:21:481861040:02:303
17:24:161721060:02:281
17:26:431711060:02:270
17:29:121831050:02:292
17:31:401711060:02:281
17:34:071961070:02:270
17:36:381681040:02:314
     17
        TOTAL: 89
29EDUARDO SALINA DE MELO2:41PC0117:15:02178990:02:383
17:20:27180990:02:392
17:23:07138990:02:401
17:31:01145980:02:401
17:36:18174990:02:392
17:41:45141970:02:410
17:44:27150970:02:421
17:47:10154970:02:432
17:49:50160980:02:401
     13
PC0217:12:46185950:02:443
17:23:28138980:02:401
17:31:23145970:02:410
17:36:40174990:02:392
17:42:07141980:02:401
17:44:49150970:02:421
17:47:31154970:02:421
17:50:14160960:02:432
17:52:57156970:02:432
     13
PC0317:16:29153960:02:432
17:21:54148990:02:401
17:24:33153990:02:392
17:27:12148990:02:392
17:29:52156980:02:401
17:35:10147990:02:401
17:37:52174970:02:421
17:48:38154970:02:410
17:54:02183980:02:410
     10
        TOTAL: 36
30FULVIO ORIOLA2:27PC0117:14:191541080:02:261
17:19:111541060:02:270
17:21:381541070:02:270
17:29:011541060:02:281
17:31:271531080:02:261
17:36:201551060:02:281
17:38:471551070:02:270
17:46:031511070:02:270
17:48:291521070:02:261
     5
PC0217:17:041541070:02:261
17:19:311541060:02:270
17:21:571541080:02:261
17:29:201541070:02:281
17:31:461531080:02:261
17:34:121551070:02:261
17:36:391551070:02:270
17:39:071551060:02:281
17:46:231511060:02:270
     6
PC0317:13:161521060:02:281
17:18:081541060:02:270
17:20:341541070:02:261
17:23:001541090:02:261
17:27:581551070:02:281
17:30:241541080:02:261
17:35:161551070:02:270
17:37:431551070:02:270
17:40:101551080:02:270
     5
        TOTAL: 16
35FABIO FARIAS2:41PC0117:12:13139960:02:432
17:14:56138970:02:432
17:17:39146960:02:432
17:20:22136960:02:432
17:33:55137980:02:401
17:36:36138970:02:410
17:41:53139980:02:392
17:44:32137980:02:392
17:47:12138980:02:401
     14
PC0217:12:35139960:02:432
17:18:01146960:02:421
17:20:44136960:02:432
17:34:17137980:02:401
17:36:57138980:02:401
17:42:14139980:02:392
17:44:53137990:02:392
17:47:34138970:02:410
17:50:14139980:02:401
     12
PC0317:11:01139970:02:421
17:13:43138970:02:421
17:21:51139980:02:401
17:30:06137990:02:392
17:32:45137990:02:392
17:35:25135990:02:401
17:40:43139990:02:401
17:48:42139970:02:410
17:51:22139980:02:401
     10
        TOTAL: 36
40DANIEL DOURADO SANTOS2:27PC0117:11:36149990:02:3710
17:14:111481010:02:358
17:16:461471010:02:358
17:19:201481020:02:347
17:21:541481020:02:347
17:24:271481030:02:336
17:27:011471010:02:347
17:29:341471030:02:336
17:32:091491020:02:358
     67
PC0217:11:571491000:02:369
17:14:311481020:02:347
17:17:071471010:02:369
17:19:401481020:02:336
17:22:151481010:02:358
17:24:481481030:02:336
17:27:211471020:02:336
17:29:561471010:02:358
17:32:291491030:02:336
     65
PC0317:13:051481000:02:369
17:15:381461020:02:336
17:18:141481010:02:369
17:20:481441030:02:347
17:23:211481030:02:336
17:25:551471020:02:347
17:28:281461020:02:336
17:31:041471010:02:369
17:33:371491030:02:336
     65
        TOTAL: 197
44NELSON PORTO2:53PC0117:12:36126870:03:018
17:15:35132880:02:596
17:18:29131910:02:541
17:21:27131890:02:585
17:27:35128890:02:585
17:30:33128880:02:585
17:33:34125880:03:018
17:36:39127860:03:0512
17:45:52127890:02:574
     54
PC0217:09:58129850:03:0512
17:13:00126870:03:029
17:15:58132890:02:585
17:18:51131910:02:530
17:21:50131880:02:596
17:27:58128890:02:574
17:30:56128890:02:585
17:33:57125880:03:018
17:46:16127890:02:585
     54
PC0317:11:16129870:03:018
17:14:17130880:03:018
17:17:13132900:02:563
17:20:11131890:02:585
17:23:12131870:03:018
17:29:16128890:02:574
17:32:14128890:02:585
17:35:18125860:03:0411
17:44:34122880:02:596
     58
        TOTAL: 166
49AUGUSTO SILVA DRIGO2:53PC0117:12:03141920:02:512
17:20:29137930:02:512
17:26:11139910:02:521
17:31:52134920:02:521
17:34:45136910:02:530
17:37:36149920:02:512
17:40:28137920:02:521
17:43:22134900:02:541
17:51:54142910:02:530
     10
PC0217:12:26141930:02:503
17:18:02145930:02:503
17:23:41144930:02:503
17:26:33139920:02:521
17:29:24138920:02:512
17:35:09136900:02:552
17:40:51137920:02:521
17:43:46134900:02:552
17:49:26139900:02:552
     19
PC0317:10:48141910:02:541
17:22:07137920:02:530
17:24:58144920:02:512
17:33:30134920:02:521
17:36:23136910:02:530
17:39:14149920:02:512
17:42:05137930:02:512
17:45:00133900:02:552
17:50:39142910:02:530
     10
        TOTAL: 39
50SOLANGE COELHO2:53PC0117:15:29134890:02:574
17:21:21130910:02:541
17:24:15131900:02:541
17:27:10135890:02:552
17:30:01132930:02:512
17:32:54132910:02:530
17:35:44134930:02:503
17:50:12136900:02:552
17:53:06132910:02:541
     16
PC0217:21:45130900:02:552
17:24:39131900:02:541
17:27:33135900:02:541
17:30:24132920:02:512
17:33:16132920:02:521
17:36:06134930:02:503
17:44:40127900:02:563
17:50:35136900:02:552
17:53:30132900:02:552
     17
PC0317:20:07130890:02:563
17:23:01131910:02:541
17:25:56131900:02:552
17:28:47135930:02:512
17:31:41131910:02:541
17:34:31134930:02:503
17:43:02131910:02:541
17:48:55136900:02:563
17:51:50132900:02:552
     18
        TOTAL: 51
52RAFAEL PICCHI FERRAZ2:41PC0117:12:001771010:02:3510
17:14:361661010:02:365
17:20:25140940:02:487
17:23:09139960:02:443
17:25:451561010:02:365
17:28:23160990:02:383
17:33:251461000:02:365
17:47:101601000:02:374
17:52:151591010:02:3415
     57
PC0217:09:49147880:02:5918
17:14:581661010:02:374
17:20:46140940:02:476
17:23:30139960:02:443
17:26:071561000:02:374
17:28:441601000:02:374
17:33:461461010:02:365
17:47:311601000:02:374
17:52:391591000:02:374
     52
PC0317:10:50177970:02:432
17:13:271661000:02:374
17:16:19162920:02:5211
17:19:10127910:02:5110
17:21:56140950:02:465
17:24:35156990:02:392
17:27:14160990:02:392
17:48:331601010:02:365
17:53:46159980:02:392
     43
        TOTAL: 152
54CARLOS ALBERTO S. NEVES2:41PC0117:12:52150960:02:432
17:15:31162980:02:392
17:18:09157990:02:383
17:20:48169980:02:392
17:23:30143970:02:421
17:26:08168990:02:383
17:31:21168990:02:374
17:33:581641000:02:374
17:52:09160990:02:383
     24
PC0217:13:14150960:02:432
17:15:53162990:02:392
17:18:32157980:02:392
17:21:10169990:02:383
17:23:52143970:02:421
17:26:30168990:02:383
17:39:301631000:02:374
17:44:42163990:02:383
17:52:32160990:02:392
     22
PC0317:11:39137960:02:443
17:14:20162970:02:410
17:16:59154990:02:392
17:22:18144960:02:432
17:24:551681000:02:374
17:27:331681000:02:383
17:32:461641000:02:374
17:50:58160990:02:392
17:53:42160950:02:443
     23
        TOTAL: 69
55ANDRÉ MEDEIROS PEREIRA BARATA2:27PC0117:11:181881070:02:270
17:13:441911080:02:261
17:16:151641040:02:314
17:18:431681060:02:281
17:21:22151980:02:3912
17:23:571711010:02:358
17:26:36143980:02:3912
17:29:30128910:02:5427
17:32:20142930:02:5023
     88
PC0217:09:11159910:02:5225
17:11:381881070:02:270
17:14:051911070:02:270
17:16:361641040:02:314
17:19:041681060:02:281
17:21:46151970:02:4215
17:24:181711030:02:325
17:26:58143980:02:4013
17:32:44142920:02:5225
     88
PC0317:10:111881080:02:261
17:12:381911070:02:270
17:15:081641050:02:303
17:17:381681040:02:303
17:20:101571040:02:325
17:22:50151980:02:4013
17:25:251711010:02:358
17:28:13138940:02:4821
17:31:05138910:02:5225
     79
        TOTAL: 255
57LEONARDO MACEDO MENEZES2:27PC0117:12:271851000:02:3710
17:14:561861060:02:292
17:17:261861040:02:303
17:22:121761080:02:252
17:35:211811070:02:261
17:37:551671020:02:347
17:40:171751100:02:225
17:49:201651040:02:303
17:51:511671040:02:314
     37
PC0217:15:191861050:02:314
17:17:451861070:02:261
17:20:071941110:02:225
17:22:311761090:02:243
17:35:401811090:02:252
17:38:151671010:02:358
17:40:411751080:02:261
17:49:411651040:02:314
17:52:121671040:02:314
     32
PC0317:11:121851030:02:325
17:16:181861040:02:325
17:18:411941100:02:234
17:21:071761080:02:261
17:34:151811040:02:303
17:36:421671070:02:270
17:39:141751030:02:325
17:45:371801030:02:336
17:50:431671050:02:303
     32
        TOTAL: 101
59FLAVIO RAMOS ZIETLOW2:41PC0117:00:00   150
17:00:00   150
17:00:00   150
17:09:23126840:03:0625
17:12:16136900:02:5312
17:15:03141940:02:476
17:18:08138850:03:0524
17:20:51140960:02:432
17:23:36142950:02:454
     523
PC0217:00:00   150
17:00:00   150
17:00:00   150
17:09:48126840:03:0625
17:12:39136910:02:5110
17:15:39141870:03:0019
17:18:30138920:02:5110
17:21:13140960:02:432
17:23:59142940:02:465
     521
PC0317:00:00   150
17:00:00   150
17:00:00   150
17:00:00   150
17:11:02131880:02:5918
17:13:50136930:02:487
17:16:55141850:03:0524
17:19:38140970:02:432
17:22:21142970:02:432
     653
        TOTAL: 1697
67ROGÉRIO CARDINALE2:53PC0117:12:03146910:02:512
17:14:57151900:02:541
17:17:50140900:02:530
17:20:42138910:02:521
17:23:35136900:02:530
17:32:17136900:02:541
17:35:08131910:02:512
17:49:38143900:02:541
17:52:30136910:02:521
     9
PC0217:12:29146910:02:530
17:15:22151900:02:530
17:18:13140910:02:512
17:21:05138910:02:521
17:23:58136900:02:530
17:32:40136890:02:541
17:35:32131910:02:521
17:50:01143900:02:552
17:52:53136910:02:521
     8
PC0317:10:46146910:02:541
17:13:37151910:02:512
17:16:32140890:02:552
17:25:13136900:02:541
17:36:47131900:02:552
17:39:42147900:02:552
17:45:25150900:02:552
17:48:17143920:02:521
17:51:10136910:02:530
     13
        TOTAL: 30
74FABIO BARBOSA PINHO2:41PC0117:20:30154980:02:392
17:23:10150980:02:401
17:28:25153990:02:383
17:31:03149990:02:383
17:33:411521000:02:383
17:36:19150990:02:383
17:38:571571000:02:383
17:41:36151990:02:392
17:52:32150970:02:443
     23
PC0217:12:41152940:02:454
17:15:25152960:02:443
17:20:52154990:02:383
17:23:32150980:02:401
17:31:241491000:02:383
17:34:021521000:02:383
17:36:41150990:02:392
17:39:20157990:02:392
17:47:081551000:02:383
     24
PC0317:13:49152960:02:432
17:16:33151960:02:443
17:21:591541000:02:374
17:24:39152980:02:401
17:27:171511000:02:383
17:32:321491000:02:383
17:37:48150990:02:392
17:40:261571010:02:383
17:48:17155980:02:421
     22
        TOTAL: 69
75JACQUES THOMÉ2:27PC0117:14:031461020:02:347
17:19:121481020:02:336
17:21:441491040:02:325
17:26:501501030:02:325
17:34:301491040:02:314
17:37:001521050:02:303
17:39:301531050:02:303
17:42:011521040:02:314
17:44:341501030:02:336
     43
PC0217:14:231461030:02:336
17:19:321481030:02:325
17:22:051491030:02:336
17:24:391481020:02:347
17:27:101501040:02:314
17:34:491491050:02:303
17:37:211521040:02:325
17:39:501531050:02:292
17:42:211521050:02:314
     42
PC0317:12:551471020:02:347
17:20:361481050:02:314
17:28:151501050:02:303
17:33:241471040:02:314
17:35:541491040:02:303
17:38:251521050:02:314
17:40:561531040:02:314
17:43:271521040:02:314
17:48:331481040:02:314
     37
        TOTAL: 122
76ROBERTO C. THOMÉ2:27PC0117:11:051611100:02:243
17:20:381611090:02:252
17:23:041621110:02:261
17:32:361611140:02:243
17:35:011621110:02:252
17:42:141631100:02:261
17:44:421611070:02:281
17:49:341631060:02:281
17:52:001621090:02:261
     15
PC0217:11:241611100:02:243
17:20:581611080:02:252
17:23:231621120:02:252
17:28:101621130:02:243
17:35:201621110:02:252
17:42:341631100:02:261
17:45:021611080:02:281
17:49:541631060:02:281
17:52:191621100:02:252
     17
PC0317:10:021601090:02:270
17:19:361611080:02:281
17:22:011611110:02:252
17:31:341621140:02:252
17:36:221621080:02:270
17:41:101631110:02:252
17:43:371631090:02:270
17:48:281611100:02:261
17:50:561631070:02:281
     9
        TOTAL: 41
77DENY JUNDY IMAMURA2:41PC0117:18:13139950:02:443
17:20:56142950:02:432
17:23:38144970:02:421
17:26:18143970:02:401
17:28:56143990:02:383
17:34:11136990:02:383
17:39:28136980:02:392
17:47:30137960:02:410
17:50:11140970:02:410
     15
PC0217:18:35139950:02:443
17:21:18142950:02:432
17:24:01144960:02:432
17:26:40143990:02:392
17:29:18143980:02:383
17:34:32136990:02:383
17:37:11136980:02:392
17:47:52137970:02:401
17:50:34140960:02:421
     19
PC0317:19:45142960:02:432
17:22:24144980:02:392
17:25:08143950:02:443
17:27:48143980:02:401
17:35:41133980:02:401
17:38:20136990:02:392
17:43:37139970:02:410
17:46:20135960:02:432
17:48:59137980:02:392
     15
        TOTAL: 49
78ALAOR ESPOSITO2:27PC0117:11:551851070:02:270
17:14:211721070:02:261
17:21:271691070:02:261
17:28:371741080:02:252
17:31:041601070:02:270
17:33:301741080:02:261
17:35:551591080:02:252
17:38:201551080:02:252
17:50:231571060:02:281
     10
PC0217:12:151851080:02:252
17:14:401721090:02:252
17:21:481691070:02:281
17:26:331731070:02:261
17:28:581741080:02:252
17:31:251601070:02:270
17:33:511741070:02:261
17:43:211791080:02:261
17:50:431571070:02:270
     10
PC0317:18:011791080:02:252
17:22:471691080:02:270
17:27:331731090:02:243
17:29:581741090:02:252
17:32:241741080:02:261
17:34:511591070:02:270
17:37:171501070:02:261
17:46:521621050:02:292
17:49:181551080:02:261
     12
        TOTAL: 32
80MARCELO R. SALINAS CAMARA2:41PC0117:20:01142960:02:432
17:22:44140960:02:432
17:25:26139970:02:421
17:28:06140980:02:401
17:30:46140970:02:401
17:33:29140960:02:432
17:41:35140970:02:421
17:44:16138970:02:410
17:46:57140980:02:410
     10
PC0217:20:23142960:02:432
17:23:06140960:02:432
17:25:48139960:02:421
17:28:28140980:02:401
17:31:07140990:02:392
17:33:50140960:02:432
17:36:30141980:02:401
17:44:38138970:02:410
17:47:19140980:02:410
     11
PC0317:18:50142960:02:432
17:24:15139980:02:410
17:26:57140960:02:421
17:29:37138990:02:401
17:32:19140960:02:421
17:35:00140970:02:410
17:40:25144980:02:410
17:43:06140970:02:410
17:45:47138980:02:410
     5
        TOTAL: 26
82RODRIGO RIOS DA SILVA2:41PC0117:18:05146950:02:454
17:20:50139960:02:454
17:26:21142950:02:443
17:29:03143970:02:421
17:31:45143970:02:421
17:34:24138990:02:392
17:37:04143980:02:401
17:39:46143970:02:421
17:48:15142960:02:454
     21
PC0217:15:43143950:02:465
17:18:27146960:02:443
17:21:12139960:02:454
17:26:43142960:02:432
17:29:26143970:02:432
17:32:06143990:02:401
17:34:45138990:02:392
17:37:26143980:02:410
17:40:07143980:02:410
     19
PC0317:16:54141940:02:476
17:19:38146960:02:443
17:22:23138960:02:454
17:27:51143980:02:410
17:30:34143970:02:432
17:33:15138980:02:410
17:35:531431000:02:383
17:38:36142970:02:432
17:47:01142960:02:443
     23
        TOTAL: 63
83RICHARD MENDES DUTZMANN2:27PC0117:24:461751050:02:292
17:27:141731060:02:281
17:29:421731060:02:281
17:32:121741040:02:303
17:37:151721040:02:303
17:39:451721040:02:303
17:42:131731050:02:281
17:47:141731040:02:303
17:49:441731040:02:303
     20
PC0217:22:381761040:02:314
17:25:071751050:02:292
17:27:351731060:02:281
17:30:031731060:02:281
17:32:321741050:02:292
17:37:351721050:02:292
17:40:061721030:02:314
17:42:341731060:02:281
17:47:351731050:02:303
     20
PC0317:23:391751040:02:303
17:26:081731050:02:292
17:28:361731060:02:281
17:31:051741050:02:292
17:38:361721070:02:281
17:41:061731040:02:303
17:43:361741050:02:303
17:46:061731040:02:303
17:48:361731040:02:303
     21
        TOTAL: 61
84MILTON PECEGUEIRO RUBINHO2:41PC0117:20:04138960:02:432
17:22:45139970:02:410
17:25:26140970:02:410
17:28:07140960:02:410
17:30:47142980:02:401
17:33:30140960:02:432
17:36:09141980:02:392
17:44:21142960:02:432
17:47:03142960:02:421
     10
PC0217:20:26138960:02:421
17:23:07139970:02:410
17:25:48140970:02:410
17:28:28140970:02:401
17:31:08142980:02:401
17:33:51140960:02:432
17:36:31141970:02:401
17:44:43142960:02:432
17:47:25142960:02:421
     9
PC0317:21:36138980:02:401
17:24:17139970:02:410
17:26:58140960:02:410
17:29:38140980:02:401
17:32:19142970:02:410
17:35:01140960:02:421
17:37:42141970:02:410
17:43:11142950:02:443
17:45:54142970:02:432
     8
        TOTAL: 27
85ANDRE DA SILVA2:41PC0117:15:15152980:02:410
17:17:55149980:02:401
17:20:37132970:02:421
17:28:34126970:02:421
17:31:14134980:02:401
17:33:54135980:02:401
17:36:36126970:02:421
17:39:16124980:02:401
17:41:59120960:02:432
     9
PC0217:15:39152980:02:410
17:18:171491000:02:383
17:21:01132960:02:443
17:26:14137990:02:392
17:28:56126970:02:421
17:31:36134980:02:401
17:34:16135980:02:401
17:36:57126980:02:410
17:39:37124980:02:401
     12
PC0317:16:44150980:02:410
17:19:24132990:02:401
17:22:07150960:02:432
17:27:23131980:02:410
17:30:03134990:02:401
17:32:43135980:02:401
17:35:23126990:02:401
17:38:06126970:02:432
17:40:47122980:02:410
     8
        TOTAL: 29
88CLAUDIO CEREGATTI2:53PC0117:10:50112790:03:1724
17:13:35137950:02:4520
17:16:41119840:03:0613
17:19:33131910:02:521
17:22:13140980:02:4045
17:35:41131890:02:563
17:38:34127910:02:530
17:41:22130930:02:485
17:48:48131960:02:4235
     146
PC0217:11:12112830:03:0916
17:13:57137950:02:4520
17:17:06119830:03:0916
17:19:53131940:02:4710
17:22:33140980:02:4045
17:36:03131890:02:574
17:38:56127910:02:530
17:41:44130940:02:485
17:49:08131970:02:4140
     156
PC0317:12:24128920:02:503
17:15:16137910:02:521
17:18:24131840:03:0815
17:31:38137980:02:4140
17:34:22140960:02:4425
17:37:21131880:02:596
17:40:08130940:02:4710
17:47:39131960:02:4330
17:50:20131970:02:4140
     170
        TOTAL: 472
90RAFAEL NAKAZATO RECIO2:53PC0117:09:44134880:02:585
17:12:34154930:02:503
17:21:19127880:02:585
17:31:12142930:02:494
17:34:12122870:03:007
17:37:00137940:02:485
17:39:56139890:02:563
17:45:55127880:02:574
17:51:55131900:02:541
     37
PC0217:10:07134890:02:574
17:12:58154930:02:512
17:21:43127890:02:574
17:31:37142920:02:521
17:34:35122890:02:585
17:37:24137930:02:494
17:40:21139880:02:574
17:46:19127890:02:563
17:52:19131900:02:541
     28
PC0317:17:02159880:03:007
17:20:04122860:03:029
17:32:54118880:03:007
17:35:47137910:02:530
17:38:39133910:02:521
17:41:37139890:02:585
17:44:37122880:03:007
17:50:42120860:03:029
17:53:35131910:02:530
     45
        TOTAL: 110
92CELSO BRUNO DE CAMARGO2:27PC0117:19:471781020:02:336
17:22:171761040:02:303
17:24:461761050:02:292
17:27:151761050:02:292
17:29:421761070:02:270
17:32:121681040:02:303
17:34:431651030:02:314
17:37:091701080:02:261
17:42:091691060:02:270
     21
PC0217:20:081781030:02:325
17:22:381761040:02:303
17:25:071761050:02:292
17:27:361761050:02:292
17:30:031761070:02:270
17:32:331681040:02:303
17:35:031651050:02:303
17:37:291701070:02:261
17:42:281691070:02:261
     20
PC0317:21:101761030:02:325
17:23:401761040:02:303
17:26:081761070:02:281
17:28:361761050:02:281
17:31:071681040:02:314
17:33:341661070:02:270
17:36:041701040:02:303
17:38:321681060:02:281
17:41:041691040:02:325
     23
        TOTAL: 64
93FABIO FOGASSA2:27PC0117:11:21176930:02:4821
17:13:562121010:02:358
17:16:291971030:02:336
17:19:012071030:02:325
17:21:53191910:02:5225
17:37:48166980:02:3912
17:40:081831110:02:2015
17:47:321931130:02:1825
17:49:542121110:02:225
     122
PC0217:11:44176940:02:4619
17:14:192121010:02:358
17:16:521971030:02:336
17:19:242071030:02:325
17:22:21191900:02:5730
17:38:091661000:02:369
17:40:281831130:02:1920
17:47:521931130:02:1825
17:50:172121080:02:252
     124
PC0317:10:07163860:03:0134
17:12:46212990:02:3912
17:15:211971010:02:358
17:17:512071050:02:303
17:20:251911020:02:347
17:36:40166890:02:5427
17:39:061811070:02:261
17:46:321931130:02:1920
17:48:482121150:02:1635
     147
        TOTAL: 393
94MARCILIO VEIGA FERNANDES2:41PC0117:18:11136940:02:465
17:20:55135960:02:443
17:23:41140950:02:465
17:26:25136950:02:443
17:29:07137970:02:421
17:31:50139970:02:432
17:34:33137960:02:432
17:40:07137950:02:465
17:51:17132950:02:465
     31
PC0217:15:46140950:02:443
17:21:19135950:02:465
17:24:03140960:02:443
17:26:47136950:02:443
17:29:28137970:02:410
17:32:11139970:02:432
17:34:55137960:02:443
17:40:29137950:02:454
17:46:05139950:02:465
     28
PC0317:16:59140950:02:465
17:19:45136940:02:465
17:22:29137960:02:443
17:25:14140950:02:454
17:27:57135960:02:432
17:30:38137980:02:410
17:33:22139950:02:443
17:38:55140960:02:454
17:41:42137950:02:476
     32
        TOTAL: 91
95LEANDRO BICUDO DE DOUZA2:27PC0117:22:201791050:02:292
17:24:471751070:02:270
17:27:151781050:02:281
17:29:441791050:02:292
17:32:131701050:02:292
17:34:441761030:02:314
17:37:121731050:02:281
17:39:431771040:02:314
17:42:111771050:02:281
     17
PC0217:20:121711040:02:314
17:22:401791050:02:281
17:25:081751060:02:281
17:27:371781050:02:292
17:30:051791060:02:281
17:32:341701050:02:292
17:35:041761040:02:303
17:37:331731050:02:292
17:42:321771060:02:281
     17
PC0317:21:131791050:02:303
17:23:411751060:02:281
17:26:091781060:02:281
17:28:371791070:02:281
17:31:071701040:02:303
17:33:361761050:02:292
17:36:061731050:02:303
17:38:331771060:02:270
17:43:341601050:02:292
     16
        TOTAL: 50
99GIULIANO SCIULLI2:27PC0117:19:241531080:02:270
17:21:511531070:02:270
17:24:171551080:02:261
17:29:101531080:02:270
17:31:371521070:02:270
17:38:571561080:02:270
17:43:521561080:02:270
17:46:191551070:02:270
17:48:461521080:02:270
     1
PC0217:19:441531080:02:270
17:22:101531080:02:261
17:24:371551080:02:270
17:27:031551080:02:261
17:29:301531080:02:270
17:31:561521090:02:261
17:34:221541080:02:261
17:36:491541080:02:270
17:44:121561080:02:270
     4
PC0317:20:471531080:02:261
17:23:131531090:02:261
17:25:401551080:02:270
17:28:061551080:02:261
17:30:341531080:02:281
17:35:251541080:02:261
17:37:531541070:02:281
17:40:211561080:02:281
17:45:161561080:02:270
     7
        TOTAL: 12
100RODRIGO DAPRÁ2:53PC0117:11:55111920:02:521
17:17:39116920:02:530
17:20:32110910:02:530
17:23:25104910:02:530
17:26:17107920:02:521
17:29:09107920:02:521
17:32:02120910:02:530
17:37:49107910:02:530
17:46:28107910:02:530
     3
PC0217:12:17111920:02:521
17:15:09114920:02:521
17:18:02116920:02:530
17:20:54110910:02:521
17:23:47104910:02:530
17:26:39107930:02:521
17:32:24120910:02:530
17:41:03108910:02:530
17:46:50107910:02:530
     4
PC0317:13:31114920:02:521
17:16:25107910:02:541
17:19:18116910:02:530
17:22:10106920:02:521
17:25:03107910:02:530
17:27:55107930:02:521
17:33:42120910:02:530
17:39:27107910:02:530
17:42:20108910:02:530
     4
        TOTAL: 11